TimeEDT,TemperatureF,Dew PointF,Humidity,Sea Level PressureIn,VisibilityMPH,Wind Direction,Wind SpeedMPH,Gust SpeedMPH,PrecipitationIn,Events,Conditions,WindDirDegrees,DateUTC
12:15 AM,75.2,73.4,94,30.07,10.0,South,3.5,-,N/A,,Clear,180,2012-10-03 04:15:00
12:35 AM,75.2,73.4,94,30.07,10.0,SSE,3.5,-,N/A,,Clear,160,2012-10-03 04:35:00
12:55 AM,75.2,73.4,94,30.07,10.0,South,4.6,-,N/A,,Clear,170,2012-10-03 04:55:00
1:15 AM,75.2,73.4,94,30.07,10.0,SSE,5.8,-,N/A,,Clear,160,2012-10-03 05:15:00
1:35 AM,75.2,73.4,94,30.07,10.0,SSE,4.6,-,N/A,,Clear,160,2012-10-03 05:35:00
1:55 AM,77.0,73.4,89,30.08,10.0,SSE,3.5,-,N/A,,Scattered Clouds,160,2012-10-03 05:55:00
2:15 AM,77.0,73.4,89,30.08,10.0,SE,5.8,-,N/A,,Overcast,140,2012-10-03 06:15:00
2:35 AM,77.0,73.4,89,30.07,10.0,SE,4.6,-,N/A,,Overcast,140,2012-10-03 06:35:00
2:55 AM,77.0,73.4,89,30.07,10.0,South,4.6,-,N/A,,Overcast,170,2012-10-03 06:55:00
3:15 AM,77.0,73.4,89,30.07,10.0,SSE,5.8,-,N/A,,Overcast,160,2012-10-03 07:15:00
3:35 AM,77.0,73.4,89,30.07,10.0,SSE,3.5,-,N/A,,Scattered Clouds,160,2012-10-03 07:35:00
3:55 AM,77.0,73.4,89,30.07,10.0,Calm,Calm,-,N/A,,Clear,0,2012-10-03 07:55:00
4:15 AM,77.0,73.4,89,30.07,10.0,Calm,Calm,-,N/A,,Clear,0,2012-10-03 08:15:00
4:35 AM,77.0,73.4,89,30.08,10.0,Calm,Calm,-,N/A,,Clear,0,2012-10-03 08:35:00
4:55 AM,77.0,73.4,89,30.08,10.0,South,3.5,-,N/A,,Clear,180,2012-10-03 08:55:00
5:15 AM,77.0,73.4,89,30.08,10.0,Calm,Calm,-,N/A,,Clear,0,2012-10-03 09:15:00
5:35 AM,77.0,73.4,89,30.08,10.0,Calm,Calm,-,N/A,,Scattered Clouds,0,2012-10-03 09:35:00
5:55 AM,77.0,73.4,89,30.08,10.0,Calm,Calm,-,N/A,,Clear,0,2012-10-03 09:55:00
6:15 AM,77.0,73.4,89,30.09,10.0,Calm,Calm,-,N/A,,Clear,0,2012-10-03 10:15:00
6:47 AM,77.0,75.2,94,30.09,10.0,Calm,Calm,-,N/A,,Mostly Cloudy,0,2012-10-03 10:47:00
7:50 AM,77.0,75.2,94,30.10,10.0,SSE,4.6,-,N/A,,Mostly Cloudy,150,2012-10-03 11:50:00
8:47 AM,80.6,75.2,84,30.12,10.0,SSE,5.8,-,N/A,,Scattered Clouds,150,2012-10-03 12:47:00
9:47 AM,84.2,75.2,74,30.14,10.0,SSE,6.9,-,N/A,,Scattered Clouds,160,2012-10-03 13:47:00
10:47 AM,86.0,75.2,70,30.13,10.0,SSE,9.2,-,N/A,,Partly Cloudy,150,2012-10-03 14:47:00
12:47 PM,87.8,75.2,66,30.13,10.0,ESE,13.8,-,N/A,,Scattered Clouds,120,2012-10-03 16:47:00
1:47 PM,89.6,75.2,62,30.12,10.0,ESE,11.5,-,N/A,,Scattered Clouds,110,2012-10-03 17:47:00
2:47 PM,86.0,78.8,79,30.10,10.0,East,13.8,-,N/A,,Scattered Clouds,100,2012-10-03 18:47:00
3:47 PM,89.6,75.2,62,30.10,10.0,SE,15.0,-,N/A,,Scattered Clouds,130,2012-10-03 19:47:00
6:47 PM,84.2,77.0,79,30.11,10.0,ESE,15.0,-,N/A,,Scattered Clouds,120,2012-10-03 22:47:00
8:15 PM,82.4,77.0,84,30.13,10.0,Calm,Calm,-,N/A,,Clear,0,2012-10-04 00:15:00
8:35 PM,80.6,77.0,89,30.14,10.0,SE,3.5,-,N/A,,Clear,130,2012-10-04 00:35:00
8:55 PM,80.6,77.0,89,30.15,10.0,Calm,Calm,-,N/A,,Clear,0,2012-10-04 00:55:00
9:15 PM,80.6,77.0,89,30.16,10.0,Calm,Calm,-,N/A,,Clear,0,2012-10-04 01:15:00
9:35 PM,80.6,77.0,89,30.17,10.0,Calm,Calm,-,N/A,,Clear,0,2012-10-04 01:35:00
9:55 PM,80.6,77.0,89,30.18,10.0,Calm,Calm,-,N/A,,Clear,0,2012-10-04 01:55:00
10:15 PM,80.6,77.0,89,30.18,10.0,Calm,Calm,-,N/A,,Clear,0,2012-10-04 02:15:00
10:35 PM,80.6,77.0,89,30.17,10.0,East,5.8,-,N/A,Thunderstorm,Clear,100,2012-10-04 02:35:00
10:55 PM,80.6,77.0,89,30.18,10.0,Calm,Calm,-,N/A,,Clear,0,2012-10-04 02:55:00
11:15 PM,80.6,77.0,89,30.19,10.0,Calm,Calm,-,N/A,,Scattered Clouds,0,2012-10-04 03:15:00
11:35 PM,80.6,77.0,89,30.20,10.0,Calm,Calm,-,N/A,,Mostly Cloudy,0,2012-10-04 03:35:00
11:55 PM,80.6,77.0,89,30.20,10.0,WNW,3.5,-,N/A,,Mostly Cloudy,290,2012-10-04 03:55:00